Weather History for KDFW - March, 2014

Change the Weather History Date:

Monday, March 24, 2014

  Actual Average Record
Temperature  
Mean Temperature 53 °F 60 °F  
Max Temperature 67 °F 71 °F 89 °F (1929)
Min Temperature 38 °F 49 °F 30 °F (2006)
Degree Days  
Heating Degree Days 12 7  
Month to date heating degree days 291 221  
Since 1 July heating degree days 2464 2153  
Cooling Degree Days 0 1  
Month to date cooling degree days 11 22  
Year to date cooling degree days 11 29  
Growing Degree Days 2 (Base 50)    
Moisture  
Dew Point 34 °F    
Average Humidity 51    
Maximum Humidity 64    
Minimum Humidity 37    
Precipitation  
Precipitation 0.00 in 0.12 in 3.83 in (1920)
Month to date precipitation 1.39 2.74  
Year to date precipitation 2.13 7.53  
Snow  
Snow 0.00 in 0.10 in 0.00 in ()
Month to date snowfall 0.1 0.2  
Since 1 July snowfall 2.9 1.2  
Snow Depth 0.00 in    
Sea Level Pressure  
Sea Level Pressure 30.14 in    
Wind  
Wind Speed 4 mph (NE)    
Max Wind Speed 13 mph    
Max Gust Speed 16 mph    
Visibility 10 miles    
Events      
T = Trace of Precipitation, MM = Missing Value Source: NWS Daily Summary

Daily Weather History Graph

Daily Weather History Graph

Search for Another Location

Airport or City:

Trip Planner

Search our weather history database for the weather conditions in past years. The results will help you decide how hot, cold, wet, or windy it might be!

Date:

Astronomy

Mar. 24, 2014 Rise Set
Actual Time 7:26 AM CDT 7:42 PM CDT
Civil Twilight 7:01 AM CDT 8:07 PM CDT
Nautical Twilight 6:33 AM CDT 8:36 PM CDT
Astronomical Twilight 6:03 AM CDT 9:05 PM CDT
Moon 2:40 AM CDT (3/24) 1:26 PM CDT (3/24)
Length of Visible Light 13h 05m
Length of Day
12h 16m
Last Quarter, 43% of the Moon is Illuminated
Mar 24
Last Quarter
Mar 30
New
Apr 7
First Quarter
Apr 15
Full
Apr 22
Last Quarter

Hourly Weather History & Observations

Time (CDT) Temp. Windchill Dew Point Humidity Pressure Visibility Wind Dir Wind Speed Gust Speed Precip Events Conditions
12:53 AM 45.0 °F 41.8 °F 27.0 °F 49% 30.25 in 10.0 mi NNE 5.8 mph - N/A   Scattered Clouds
1:53 AM 44.1 °F 40.8 °F 26.1 °F 49% 30.23 in 10.0 mi NNE 5.8 mph - N/A   Mostly Cloudy
2:53 AM 44.1 °F 42.5 °F 26.1 °F 49% 30.21 in 10.0 mi NNE 3.5 mph - N/A   Mostly Cloudy
3:53 AM 43.0 °F 41.3 °F 26.1 °F 51% 30.19 in 10.0 mi North 3.5 mph - N/A   Mostly Cloudy
4:53 AM 42.1 °F 39.2 °F 26.1 °F 53% 30.17 in 10.0 mi North 4.6 mph - N/A   Scattered Clouds
5:53 AM 41.0 °F 38.0 °F 27.0 °F 57% 30.18 in 10.0 mi NNW 4.6 mph - N/A   Partly Cloudy
6:53 AM 39.9 °F 35.1 °F 28.9 °F 65% 30.19 in 10.0 mi North 6.9 mph - N/A   Partly Cloudy
7:53 AM 39.9 °F - 28.9 °F 65% 30.19 in 10.0 mi Calm Calm - N/A   Scattered Clouds
8:53 AM 46.0 °F - 32.0 °F 58% 30.20 in 10.0 mi Calm Calm - N/A   Scattered Clouds
9:53 AM 52.0 °F - 33.1 °F 49% 30.20 in 10.0 mi SE 10.4 mph - N/A   Scattered Clouds
10:53 AM 55.0 °F - 33.1 °F 43% 30.19 in 10.0 mi SSE 9.2 mph - N/A   Scattered Clouds
11:53 AM 57.9 °F - 36.0 °F 44% 30.16 in 10.0 mi Variable 5.8 mph - N/A   Scattered Clouds
12:53 PM 61.0 °F - 37.9 °F 42% 30.13 in 10.0 mi South 4.6 mph - N/A   Scattered Clouds
1:53 PM 62.1 °F - 37.0 °F 39% 30.10 in 10.0 mi Calm Calm - N/A   Mostly Cloudy
2:53 PM 63.0 °F - 39.0 °F 41% 30.06 in 10.0 mi Calm Calm - N/A   Mostly Cloudy
3:53 PM 66.0 °F - 39.0 °F 37% 30.03 in 10.0 mi Variable 4.6 mph - N/A   Scattered Clouds
4:53 PM 64.9 °F - 39.0 °F 39% 30.02 in 10.0 mi Calm Calm - N/A   Partly Cloudy
5:53 PM 66.9 °F - 39.0 °F 36% 30.03 in 10.0 mi North 10.4 mph - N/A   Clear
6:53 PM 64.9 °F - 39.0 °F 39% 30.05 in 10.0 mi NE 4.6 mph - N/A   Clear
7:53 PM 57.9 °F - 39.0 °F 49% 30.07 in 10.0 mi ENE 6.9 mph - N/A   Clear
8:53 PM 57.9 °F - 39.0 °F 49% 30.09 in 10.0 mi ENE 4.6 mph - N/A   Clear
9:53 PM 59.0 °F - 39.0 °F 48% 30.12 in 10.0 mi Calm Calm - N/A   Clear
10:53 PM 55.9 °F - 37.9 °F 51% 30.13 in 10.0 mi South 3.5 mph - N/A   Clear
11:53 PM 55.9 °F - 37.0 °F 49% 30.14 in 10.0 mi SSE 3.5 mph - N/A   Clear